sat.trackr.live / text

‹ back to catalog

ACCENTURE-1

NORAD 66767 · 2025-276DF

PAYLOAD ACTIVE UNKNOWN

§ Identity

Operator
Country
UK
Launch date
2025-11-28
Launch site
AFWTR
Launch vehicle
Mass (kg)
RCS (m²)

External: N2YO · Heavens-Above · Gunter

§ Orbital elements

Epoch: 2026-09-20T10:33:43.902144Z

Period
94.70 min
Inclination
97.4082°
Eccentricity
0.0001455
Mean motion
15.20550495 rev/d
Perigee alt
503.2 km
Apogee alt
505.2 km
Semi-major
6,882.3 km
B*
1.0101e-4
RAAN
335.4316°
Arg perigee
117.9690°
Mean anomaly
242.1693°
Rev number
4,490

§ Raw data

ACCENTURE-11 66767U 25276DF  26263.44009146  .00002142  00000+0  10101-3 0  99952 66767  97.4082 335.4316 0001455 117.9690 242.1693 15.20550495 44907

JSON: /api/v1/satellites/66767 · /tle

For live sub-satellite position, see the globe view (requires WebGL).

§ Visibility from observer

Set your observer location to see the next 7 days of passes ≥ 10°. The values pass through the URL so the page stays shareable.

No JS? Fill the form by hand. The geolocation button needs JavaScript.